When you browse on this site, cookies collect data to enhance your experience and personalize the content and advertising you see.
Visit our Privacy Policy to learn more. By continuing to use the site, you agree to this use of cookies and data.
  • In Netherlands
  • List of Countries
  • For 7 days
  • Water Temperature
  • Satellite Maps
  • Weather Map
  • Weather Widgets
  • user-avatar
    Login

    Hourly Weather Lezhe

    Today, 20 March, Wednesday

    Time Temperature Precipitation Wind Pressure Humidity
    00:00 +10°C° 0 mm 2 mps 740 mmHg 73%
    01:00 +11°C° 0 mm 1 mps 740 mmHg 77%
    02:00 +10°C° 0 mm 2 mps 740 mmHg 76%
    03:00 +10°C° 0 mm 2 mps 740 mmHg 75%
    04:00 +9°C° 0 mm 3 mps 741 mmHg 74%
    05:00 +9°C° 0 mm 3 mps 741 mmHg 72%
    06:00 +10°C° 0 mm 3 mps 741 mmHg 70%
    07:00 +10°C° 0 mm 3 mps 741 mmHg 68%
    08:00 +12°C° 0 mm 4 mps 741 mmHg 62%
    09:00 +14°C° 0 mm 4 mps 741 mmHg 55%
    10:00 +15°C° 0 mm 4 mps 741 mmHg 49%
    11:00 +17°C° 0 mm 4 mps 741 mmHg 46%
    12:00 +18°C° 0 mm 4 mps 741 mmHg 44%
    13:00 +19°C° 0 mm 4 mps 742 mmHg 42%
    14:00 +19°C° 0 mm 4 mps 742 mmHg 43%
    15:00 +19°C° 0 mm 4 mps 742 mmHg 44%
    16:00 +17°C° 0 mm 5 mps 742 mmHg 45%
    17:00 +16°C° 0 mm 5 mps 742 mmHg 48%
    18:00 +15°C° 0 mm 5 mps 742 mmHg 52%
    19:00 +13°C° 0 mm 5 mps 743 mmHg 55%
    20:00 +13°C° 0 mm 5 mps 743 mmHg 56%
    21:00 +12°C° 0 mm 5 mps 743 mmHg 57%
    22:00 +11°C° 0 mm 6 mps 744 mmHg 58%
    23:00 +10°C° 0 mm 5 mps 744 mmHg 59%

    Tomorrow, 21 March, Thursday

    Time Temperature Precipitation Wind Pressure Humidity
    00:00 +10°C° 0 mm 5 mps 744 mmHg 60%
    01:00 +9°C° 0 mm 5 mps 744 mmHg 61%
    02:00 +9°C° 0 mm 5 mps 744 mmHg 62%
    03:00 +8°C° 0 mm 5 mps 744 mmHg 62%
    04:00 +8°C° 0 mm 5 mps 744 mmHg 63%
    05:00 +8°C° 0 mm 5 mps 745 mmHg 62%
    06:00 +9°C° 0 mm 5 mps 745 mmHg 62%
    07:00 +9°C° 0 mm 5 mps 745 mmHg 61%
    08:00 +12°C° 0 mm 5 mps 745 mmHg 56%
    09:00 +13°C° 0 mm 5 mps 745 mmHg 51%
    10:00 +15°C° 0 mm 5 mps 745 mmHg 46%
    11:00 +16°C° 0 mm 5 mps 745 mmHg 44%
    12:00 +17°C° 0 mm 5 mps 745 mmHg 42%
    13:00 +19°C° 0 mm 5 mps 744 mmHg 40%
    14:00 +17°C° 0 mm 5 mps 744 mmHg 41%
    15:00 +17°C° 0 mm 5 mps 744 mmHg 42%
    16:00 +17°C° 0 mm 5 mps 744 mmHg 43%
    17:00 +15°C° 0 mm 5 mps 744 mmHg 47%
    18:00 +14°C° 0 mm 5 mps 744 mmHg 51%
    19:00 +12°C° 0 mm 5 mps 744 mmHg 55%
    20:00 +12°C° 0 mm 5 mps 745 mmHg 57%
    21:00 +11°C° 0 mm 4 mps 745 mmHg 59%
    22:00 +11°C° 0 mm 4 mps 746 mmHg 61%
    23:00 +10°C° 0 mm 4 mps 746 mmHg 62%

    Day after tomorrow, 22 March, Friday

    Time Temperature Precipitation Wind Pressure Humidity
    00:00 +10°C° 0 mm 4 mps 746 mmHg 63%
    01:00 +8°C° 0 mm 4 mps 746 mmHg 64%
    02:00 +8°C° 0 mm 4 mps 746 mmHg 65%
    03:00 +8°C° 0 mm 4 mps 746 mmHg 66%
    04:00 +7°C° 0 mm 4 mps 746 mmHg 67%
    05:00 +8°C° 0 mm 4 mps 746 mmHg 66%
    06:00 +9°C° 0 mm 3 mps 746 mmHg 66%
    07:00 +10°C° 0 mm 3 mps 746 mmHg 65%
    08:00 +12°C° 0 mm 3 mps 746 mmHg 58%
    09:00 +14°C° 0 mm 3 mps 746 mmHg 52%
    10:00 +17°C° 0 mm 3 mps 746 mmHg 45%
    11:00 +18°C° 0 mm 3 mps 745 mmHg 43%
    12:00 +19°C° 0 mm 3 mps 745 mmHg 40%
    13:00 +20°C° 0 mm 3 mps 744 mmHg 37%
    14:00 +20°C° 0 mm 3 mps 744 mmHg 38%
    15:00 +20°C° 0 mm 3 mps 744 mmHg 39%
    16:00 +19°C° 0 mm 4 mps 743 mmHg 39%
    17:00 +18°C° 0 mm 3 mps 743 mmHg 45%
    18:00 +16°C° 0 mm 3 mps 744 mmHg 50%
    19:00 +13°C° 0 mm 3 mps 744 mmHg 56%
    20:00 +13°C° 0 mm 3 mps 744 mmHg 57%
    21:00 +12°C° 0 mm 3 mps 744 mmHg 57%
    22:00 +11°C° 0 mm 3 mps 744 mmHg 58%
    23:00 +11°C° 0 mm 3 mps 744 mmHg 59%

    23 March, Saturday

    Time Temperature Precipitation Wind Pressure Humidity
    00:00 +11°C° 0 mm 3 mps 744 mmHg 60%
    01:00 +10°C° 0 mm 3 mps 744 mmHg 62%
    02:00 +10°C° 0 mm 3 mps 744 mmHg 63%
    03:00 +10°C° 0 mm 3 mps 744 mmHg 63%
    04:00 +9°C° 0 mm 3 mps 744 mmHg 64%
    05:00 +10°C° 0 mm 3 mps 744 mmHg 63%
    06:00 +10°C° 0 mm 3 mps 744 mmHg 62%
    07:00 +11°C° 0 mm 3 mps 744 mmHg 61%
    08:00 +13°C° 0 mm 3 mps 744 mmHg 54%
    09:00 +16°C° 0 mm 3 mps 743 mmHg 47%
    10:00 +18°C° 0 mm 3 mps 743 mmHg 40%
    11:00 +19°C° 0 mm 3 mps 743 mmHg 38%
    12:00 +20°C° 0 mm 3 mps 743 mmHg 35%
    13:00 +21°C° 0 mm 2 mps 743 mmHg 32%
    14:00 +21°C° 0 mm 3 mps 742 mmHg 33%
    15:00 +21°C° 0 mm 3 mps 742 mmHg 34%
    16:00 +21°C° 0 mm 3 mps 742 mmHg 35%
    17:00 +19°C° 0 mm 3 mps 742 mmHg 40%
    18:00 +17°C° 0 mm 3 mps 742 mmHg 45%
    19:00 +14°C° 0 mm 3 mps 743 mmHg 50%
    20:00 +15°C° 0 mm 2 mps 743 mmHg 51%
    21:00 +14°C° 0 mm 2 mps 743 mmHg 51%
    22:00 +13°C° 0 mm 2 mps 743 mmHg 52%
    23:00 +13°C° 0 mm 2 mps 743 mmHg 53%

    24 March, Sunday

    Time Temperature Precipitation Wind Pressure Humidity
    00:00 +13°C° 0 mm 2 mps 743 mmHg 54%
    01:00 +12°C° 0 mm 2 mps 743 mmHg 55%
    02:00 +12°C° 0 mm 2 mps 743 mmHg 56%
    03:00 +12°C° 0 mm 2 mps 743 mmHg 57%
    04:00 +10°C° 0 mm 2 mps 743 mmHg 58%
    05:00 +12°C° 0 mm 2 mps 743 mmHg 58%
    06:00 +12°C° 0 mm 2 mps 743 mmHg 57%
    07:00 +13°C° 0 mm 2 mps 743 mmHg 57%
    08:00 +15°C° 0 mm 2 mps 743 mmHg 50%
    09:00 +19°C° 0 mm 1 mps 743 mmHg 44%
    10:00 +21°C° 0 mm 1 mps 742 mmHg 37%
    11:00 +22°C° 0 mm 1 mps 742 mmHg 36%
    12:00 +21°C° 0 mm 2 mps 742 mmHg 35%
    13:00 +23°C° 0 mm 2 mps 741 mmHg 34%
    14:00 +21°C° 0 mm 3 mps 741 mmHg 37%
    15:00 +21°C° 0 mm 3 mps 740 mmHg 40%
    16:00 +20°C° 0 mm 3 mps 740 mmHg 43%
    17:00 +18°C° 0 mm 2 mps 740 mmHg 51%
    18:00 +16°C° 0 mm 1 mps 740 mmHg 58%
    19:00 +15°C° 0 mm 1 mps 740 mmHg 65%
    20:00 +14°C° 0 mm 1 mps 740 mmHg 65%
    21:00 +14°C° 0 mm 1 mps 740 mmHg 65%
    22:00 +14°C° 0 mm 1 mps 740 mmHg 64%
    23:00 +14°C° 0 mm 1 mps 740 mmHg 64%

    25 March, Monday

    Time Temperature Precipitation Wind Pressure Humidity
    00:00 +13°C° 0 mm 1 mps 740 mmHg 64%
    01:00 +13°C° 0 mm 1 mps 740 mmHg 64%
    02:00 +13°C° 0 mm 1 mps 739 mmHg 63%
    03:00 +12°C° 0 mm 1 mps 739 mmHg 63%
    04:00 +12°C° 0 mm 1 mps 739 mmHg 63%
    05:00 +13°C° 0 mm 1 mps 739 mmHg 61%
    06:00 +13°C° 0 mm 1 mps 739 mmHg 60%
    07:00 +14°C° 0 mm 1 mps 739 mmHg 59%
    08:00 +16°C° 0 mm 1 mps 739 mmHg 53%
    09:00 +19°C° 0 mm 1 mps 739 mmHg 47%
    10:00 +21°C° 0 mm 1 mps 739 mmHg 42%
    11:00 +21°C° 0 mm 1 mps 738 mmHg 42%
    12:00 +20°C° 0 mm 2 mps 738 mmHg 42%
    13:00 +21°C° 0 mm 3 mps 737 mmHg 42%
    14:00 +20°C° 0 mm 3 mps 737 mmHg 45%
    15:00 +19°C° 0 mm 3 mps 736 mmHg 49%
    16:00 +19°C° 0 mm 3 mps 736 mmHg 53%
    17:00 +17°C° 0 mm 2 mps 736 mmHg 62%
    18:00 +15°C° 0 mm 1 mps 736 mmHg 72%
    19:00 +14°C° 0 mm 1 mps 736 mmHg 81%
    20:00 +13°C° 0 mm 1 mps 736 mmHg 83%
    21:00 +13°C° 0 mm 1 mps 736 mmHg 85%
    22:00 +12°C° 0 mm 1 mps 736 mmHg 87%
    23:00 +12°C° 0 mm 1 mps 736 mmHg 88%
    Show more